#timestamp,LO_Frequency,Hit 
1498723215.7,286047029.1,N
1498723235.5,286047028.8,N
1498723255.3,286047025.3,N
1498723275.2,286047022.9,N
1498723295.9,286047020.9,N
1498723315.7,286047017.8,N
1498723335.6,286047016.8,N
1498723355.4,286047012.9,N
1498723375.2,286047013.0,N
1498723395.0,286047018.0,N
1498723395.9,286047018.0,N
1498723415.8,286047020.8,N
1498723435.6,286047024.7,N
1498723455.4,286047027.8,N
1498723475.3,286047025.4,N
1498723495.1,286047019.0,N
1498723515.8,286047018.6,N
1498723535.7,286047021.9,N
1498723555.5,286047022.3,N
1498723575.3,286047020.8,N
1498723595.2,286047024.4,N
1498723615.9,286047028.1,N
1498723635.7,286047029.0,N
1498723655.6,286047030.9,N
1498723675.4,286047033.1,N
1498723695.2,286047030.3,N
1498723715.0,286047032.6,N
1498723716.0,286047032.6,N
1498723735.8,286047025.7,N
1498723755.6,286047020.8,N
1498723775.4,286047015.8,N
1498723795.3,286047014.2,N
1498723815.1,286047016.0,N
1498723835.8,286047015.5,N
1498723855.7,286047017.0,N
1498723875.5,286047020.5,N
1498723895.3,286047027.6,N
1498723915.2,286047031.8,N
1498723935.9,286047036.9,N
1498723955.7,286047037.6,N
1498723975.6,286047028.9,N
1498723995.4,286047029.5,N
1498724015.2,286047029.0,N
1498724035.0,286047037.5,N
1498724036.0,286047037.5,N
1498724055.8,286047040.9,N
1498724075.6,286047035.2,N
1498724095.4,286047040.8,N
1498724115.3,286047042.5,N
1498724135.1,286047041.5,N
1498724155.8,286047048.1,N
1498724175.7,286047046.5,N
1498724195.5,286047043.9,N
1498724215.3,286047037.3,N
1498724235.2,286047039.2,N
1498724255.9,286047041.1,N
1498724275.7,286047040.6,N
1498724295.6,286047046.0,N
1498724315.4,286047047.1,N
1498724335.2,286047052.0,N
1498724355.1,286047056.9,N
1498724356.0,286047056.9,N
1498724375.8,286047054.2,N
1498724395.6,286047055.8,N
1498724415.5,286047055.0,N
1498724435.3,286047062.7,Y
1498724455.1,286047058.8,Y
1498724475.9,286047054.1,N
1498724495.7,286047058.9,N
1498724515.5,286047059.2,N
1498724535.4,286047056.0,N
1498724555.2,286047057.2,N
1498724575.0,286047054.7,N
1498724575.9,286047054.7,N
1498724595.8,286047055.3,N
1498724615.6,286047058.3,N
1498724635.4,286047055.8,N
1498724655.3,286047057.5,N
1498724675.1,286047063.5,Y
1498724676.0,286047063.5,Y
1498724695.8,286047048.6,N
1498724715.7,286047048.6,N
1498724735.5,286047053.6,N
1498724755.3,286047056.6,N
1498724775.2,286047055.8,N
1498724795.9,286047063.5,Y
1498724815.7,286047056.2,N
1498724835.6,286047057.4,N
1498724855.4,286047061.2,N
1498724875.2,286047062.5,N
1498724895.1,286047060.4,N
1498724896.0,286047060.4,N
1498724915.8,286047055.3,N
1498724935.6,286047060.4,N
1498724955.5,286047057.6,N
1498724975.3,286047052.7,N
1498724995.1,286047050.3,N
1498725015.9,286047043.8,N
1498725035.7,286047040.1,N
1498725055.5,286047042.7,N
1498725075.3,286047042.5,N
1498725095.2,286047038.1,N
1498725115.0,286047040.4,N
1498725115.9,286047040.4,N
1498725135.7,286047042.5,N
1498725155.6,286047048.4,N
1498725175.4,286047052.1,N
1498725195.2,286047055.3,N
1498725215.1,286047056.1,N
1498725216.0,286047056.1,N
1498725235.8,286047058.6,N
1498725255.6,286047057.1,N
1498725275.5,286047052.8,N
1498725295.3,286047045.0,N
1498725315.1,286047040.3,N
1498725335.9,286047041.1,N
1498725355.7,286047039.5,N
1498725375.5,286047040.5,N
1498725395.3,286047043.5,N
1498725415.2,286047047.3,N
1498725435.0,286047050.4,N
1498725435.9,286047050.4,N
1498725455.7,286047052.2,N
1498725475.6,286047050.3,N
1498725495.4,286047050.1,N
1498725515.2,286047050.3,N
1498725535.1,286047053.5,N
1498725536.0,286047053.5,N
1498725555.8,286047053.3,N
1498725575.6,286047052.8,N
1498725595.5,286047055.8,N
1498725615.3,286047054.0,N
1498725635.1,286047055.0,N
1498725655.9,286047056.7,N
1498725675.7,286047056.3,N
1498725695.5,286047060.0,N
1498725715.4,286047060.2,N
1498725735.2,286047057.5,N
1498725755.0,286047058.3,N
1498725755.9,286047058.3,N
1498725775.8,286047056.6,N
1498725795.6,286047060.2,N
1498725815.4,286047052.6,N
1498725835.3,286047050.5,N
1498725855.1,286047047.1,N
1498725856.0,286047047.1,N
1498725875.8,286047046.1,N
1498725895.6,286047046.2,N
1498725915.5,286047044.6,N
1498725935.3,286047048.6,N
1498725955.1,286047050.6,N
1498725975.9,286047051.8,N
1498725995.7,286047046.9,N
1498726015.5,286047038.7,N
1498726035.4,286047034.6,N
1498726055.2,286047028.8,N
1498726075.0,286047028.2,N
1498726075.9,286047028.2,N
1498726095.8,286047028.6,N
1498726115.6,286047028.9,N
1498726135.4,286047026.3,N
1498726155.3,286047024.5,N
1498726175.1,286047021.6,N
1498726176.0,286047021.6,N
1498726195.8,286047018.1,N
1498726215.6,286047014.6,N
1498726235.5,286047018.8,N
1498726255.3,286047016.8,N
1498726275.1,286047021.4,N
1498726295.9,286047021.0,N
1498726315.7,286047022.5,N
1498726335.5,286047022.6,N
1498726355.4,286047022.3,N
1498726375.2,286047023.2,N
1498726395.0,286047019.6,N
1498726395.9,286047019.6,N
1498726415.8,286047017.5,N
1498726435.6,286047018.7,N
1498726455.4,286047017.7,N
1498726475.3,286047019.0,N
1498726495.1,286047017.6,N
1498726496.0,286047017.6,N
1498726515.8,286047020.0,N
1498726535.6,286047019.3,N
1498726555.5,286047019.5,N
1498726575.3,286047019.6,N
1498726595.1,286047022.7,N
1498726615.9,286047022.1,N
1498726635.7,286047020.7,N
1498726655.5,286047024.3,N
1498726675.4,286047027.9,N
1498726695.2,286047028.9,N
1498726715.0,286047031.6,N
1498726715.9,286047031.6,N
1498726735.8,286047031.7,N
1498726755.6,286047034.0,N
1498726775.4,286047033.4,N
1498726795.3,286047036.4,N
